Find Starlink 38187

NORAD ID: 100259 Int'l Des: 2026-181 Owner: SPXS Country: US Constellation: starlink operational

当前视图

正在加载3D地球...

About Starlink 38187

Starlink 38187 (NORAD 100259) is a starlink constellation satellite launched Aug 8, 2026 by SPXS of US. with a mass of 575.00 kg.

即将过境

Passes for default location (London). Set your location on the main map for personalized predictions.

高度历史

Loading altitude history...

两行轨道根数

1 A0259U 26181P 26263.64692112 .00144780 00000-0 95402-3 0 9991
2 A0259 97.2861 307.2508 0000285 75.9582 284.1715 15.75217859 7989
Epoch: Sep 20, 2026 • Age: 9 hours

当前状态

高度 346.4 km
远地点 / 近地点 N/A
速度 7.70 km/s
星下点 20.85°N, 66.47°W
发射日期 Aug 8, 2026
运行时间 0.1 years
类型 internet

技术详情

分类 Payload
质量 575.00 kg
干质量 530.00 kg
长度 0.30 m
跨度 29.00 m
形状 ? Box
制造商 SPXS
平台类型 Starlink V2MO
阶段状态 In Orbit
所有者/国家 SPXS/US

Most Searched